Time,TemperatureF,DewpointF,PressureIn,WindDirection,WindDirectionDegrees,WindSpeedMPH,WindSpeedGustMPH,Humidity,HourlyPrecipIn,Conditions,Clouds,dailyrainin,SolarRadiationWatts/m^2,SoftwareType,DateUTC
2013-06-30 00:01:00,80.1,74.5,29.75,WSW,238,0.0,7.0,83,0.00,,,0.00,0.0,meteohub,2013-06-30 04:01:00,
2013-06-30 00:06:00,80.1,74.8,29.75,SSW,211,0.0,5.0,84,0.00,,,0.00,0.0,meteohub,2013-06-30 04:06:00,
2013-06-30 00:11:00,79.9,74.3,29.75,South,183,0.0,5.0,83,0.00,,,0.00,0.0,meteohub,2013-06-30 04:11:00,
2013-06-30 00:16:00,79.7,74.1,29.75,SSW,192,0.0,9.0,83,0.00,,,0.00,0.0,meteohub,2013-06-30 04:16:00,
2013-06-30 00:21:00,79.5,74.3,29.75,SSW,200,2.0,9.0,84,0.00,,,0.00,0.0,meteohub,2013-06-30 04:21:00,
2013-06-30 00:26:00,79.5,74.3,29.75,South,172,0.0,9.0,84,0.00,,,0.00,0.0,meteohub,2013-06-30 04:26:00,
2013-06-30 00:31:00,79.3,74.1,29.75,South,182,0.0,5.0,84,0.00,,,0.00,0.0,meteohub,2013-06-30 04:31:00,
2013-06-30 00:36:00,79.3,74.1,29.75,South,177,0.0,5.0,84,0.00,,,0.00,0.0,meteohub,2013-06-30 04:36:00,
2013-06-30 00:41:00,79.3,74.1,29.75,SSW,195,0.0,5.0,84,0.00,,,0.00,0.0,meteohub,2013-06-30 04:41:00,
2013-06-30 00:46:00,79.2,74.3,29.75,WSW,250,1.0,6.0,85,0.00,,,0.00,0.0,meteohub,2013-06-30 04:46:00,
2013-06-30 00:51:00,79.2,74.3,29.75,SSE,166,1.0,6.0,85,0.00,,,0.00,0.0,meteohub,2013-06-30 04:51:00,
2013-06-30 00:56:00,79.0,74.1,29.75,South,172,0.0,5.0,85,0.00,,,0.00,0.0,meteohub,2013-06-30 04:56:00,
2013-06-30 01:01:00,78.8,73.9,29.74,South,180,0.0,5.0,85,0.00,,,0.00,0.0,meteohub,2013-06-30 05:01:00,
2013-06-30 01:06:00,78.6,73.8,29.74,SSE,168,0.0,5.0,85,0.00,,,0.00,0.0,meteohub,2013-06-30 05:06:00,
2013-06-30 01:11:00,78.6,73.8,29.74,SW,218,0.0,6.0,85,0.00,,,0.00,0.0,meteohub,2013-06-30 05:11:00,
2013-06-30 01:16:00,78.6,74.1,29.74,SSE,161,3.0,6.0,86,0.00,,,0.00,0.0,meteohub,2013-06-30 05:16:00,
2013-06-30 01:21:00,78.6,74.1,29.74,SSE,160,0.0,5.0,86,0.00,,,0.00,0.0,meteohub,2013-06-30 05:21:00,
2013-06-30 01:26:00,78.4,73.9,29.74,SSW,195,3.0,5.0,86,0.00,,,0.00,0.0,meteohub,2013-06-30 05:26:00,
2013-06-30 01:31:00,78.3,73.8,29.74,SSE,147,0.0,4.0,86,0.00,,,0.00,0.0,meteohub,2013-06-30 05:31:00,
2013-06-30 01:36:00,78.3,73.8,29.74,SSE,159,0.0,5.0,86,0.00,,,0.00,0.0,meteohub,2013-06-30 05:36:00,
2013-06-30 01:41:00,78.3,74.1,29.74,SSE,159,0.0,5.0,87,0.00,,,0.00,0.0,meteohub,2013-06-30 05:41:00,
2013-06-30 01:46:00,78.1,73.9,29.74,SSE,153,0.0,5.0,87,0.00,,,0.00,0.0,meteohub,2013-06-30 05:46:00,
2013-06-30 01:51:00,78.1,73.9,29.74,SSE,165,0.0,5.0,87,0.00,,,0.00,0.0,meteohub,2013-06-30 05:51:00,
2013-06-30 01:56:00,77.9,73.8,29.74,SSE,155,0.0,6.0,87,0.00,,,0.00,0.0,meteohub,2013-06-30 05:56:00,
2013-06-30 02:01:00,77.7,73.6,29.74,South,169,0.0,6.0,87,0.00,,,0.00,0.0,meteohub,2013-06-30 06:01:00,
2013-06-30 02:06:00,77.7,73.9,29.74,South,182,0.0,6.0,88,0.00,,,0.00,0.0,meteohub,2013-06-30 06:06:00,
2013-06-30 02:11:00,77.7,73.9,29.74,ESE,112,0.0,3.0,88,0.00,,,0.00,0.0,meteohub,2013-06-30 06:11:00,
2013-06-30 02:16:00,77.7,73.9,29.74,SSW,211,0.0,6.0,88,0.00,,,0.00,0.0,meteohub,2013-06-30 06:16:00,
2013-06-30 02:21:00,77.7,73.9,29.74,SSE,161,0.0,6.0,88,0.00,,,0.00,0.0,meteohub,2013-06-30 06:21:00,
2013-06-30 02:26:00,77.7,73.9,29.74,South,190,2.0,4.0,88,0.00,,,0.00,0.0,meteohub,2013-06-30 06:26:00,
2013-06-30 02:31:00,77.5,73.8,29.74,SSE,168,0.0,6.0,88,0.00,,,0.00,0.0,meteohub,2013-06-30 06:31:00,
2013-06-30 02:36:00,77.5,74.1,29.73,South,173,0.0,6.0,89,0.00,,,0.00,0.0,meteohub,2013-06-30 06:36:00,
2013-06-30 02:41:00,77.5,74.1,29.73,SSW,205,0.0,6.0,89,0.00,,,0.00,0.0,meteohub,2013-06-30 06:41:00,
2013-06-30 02:46:00,77.4,73.9,29.73,South,188,0.0,3.0,89,0.00,,,0.00,0.0,meteohub,2013-06-30 06:46:00,
2013-06-30 02:52:00,77.4,73.9,29.73,SE,136,0.0,6.0,89,0.00,,,0.00,0.0,meteohub,2013-06-30 06:52:00,
2013-06-30 02:57:00,77.2,73.9,29.73,South,182,1.0,6.0,90,0.00,,,0.00,0.0,meteohub,2013-06-30 06:57:00,
2013-06-30 03:02:00,77.2,73.9,29.73,South,174,0.0,4.0,90,0.00,,,0.00,0.0,meteohub,2013-06-30 07:02:00,
2013-06-30 03:07:00,77.0,73.8,29.73,South,173,0.0,4.0,90,0.00,,,0.00,0.0,meteohub,2013-06-30 07:07:00,
2013-06-30 03:12:00,77.0,73.8,29.73,South,169,0.0,4.0,90,0.00,,,0.00,0.0,meteohub,2013-06-30 07:12:00,
2013-06-30 03:17:00,76.8,73.6,29.73,WSW,246,0.0,4.0,90,0.00,,,0.00,0.0,meteohub,2013-06-30 07:17:00,
2013-06-30 03:22:00,76.8,73.6,29.73,South,170,0.0,4.0,90,0.00,,,0.00,0.0,meteohub,2013-06-30 07:22:00,
2013-06-30 03:27:00,77.0,73.8,29.73,SSE,158,0.0,5.0,90,0.00,,,0.00,0.0,meteohub,2013-06-30 07:27:00,
2013-06-30 03:32:00,76.8,73.6,29.73,SSE,165,0.0,5.0,90,0.00,,,0.00,0.0,meteohub,2013-06-30 07:32:00,
2013-06-30 03:37:00,76.8,73.6,29.73,WSW,251,4.0,5.0,90,0.00,,,0.00,0.0,meteohub,2013-06-30 07:37:00,
2013-06-30 03:42:00,76.8,73.6,29.73,SE,129,0.0,6.0,90,0.00,,,0.00,0.0,meteohub,2013-06-30 07:42:00,
2013-06-30 03:47:00,76.8,73.6,29.73,SE,146,0.0,6.0,90,0.00,,,0.00,0.0,meteohub,2013-06-30 07:47:00,
2013-06-30 03:52:00,76.8,73.6,29.73,South,172,0.0,6.0,90,0.00,,,0.00,0.0,meteohub,2013-06-30 07:52:00,
2013-06-30 03:57:00,76.6,73.8,29.73,SSE,159,0.0,4.0,91,0.00,,,0.00,0.0,meteohub,2013-06-30 07:57:00,
2013-06-30 04:02:00,76.6,73.8,29.73,SSW,192,0.0,4.0,91,0.00,,,0.00,0.0,meteohub,2013-06-30 08:02:00,
2013-06-30 04:07:00,76.6,73.8,29.73,SW,215,2.0,3.0,91,0.00,,,0.00,0.0,meteohub,2013-06-30 08:07:00,
2013-06-30 04:12:00,76.5,73.6,29.73,South,182,1.0,5.0,91,0.00,,,0.00,0.0,meteohub,2013-06-30 08:12:00,
2013-06-30 04:17:00,76.5,73.6,29.73,SE,125,0.0,5.0,91,0.00,,,0.00,0.0,meteohub,2013-06-30 08:17:00,
2013-06-30 04:22:00,76.5,73.6,29.73,SE,125,0.0,5.0,91,0.00,,,0.00,0.0,meteohub,2013-06-30 08:22:00,
2013-06-30 04:27:00,76.5,73.6,29.73,SE,125,0.0,1.0,91,0.00,,,0.00,0.0,meteohub,2013-06-30 08:27:00,
2013-06-30 04:32:00,76.5,73.9,29.73,SSE,147,0.0,5.0,92,0.00,,,0.00,0.0,meteohub,2013-06-30 08:32:00,
2013-06-30 04:37:00,76.5,73.9,29.73,SSE,147,0.0,5.0,92,0.00,,,0.00,0.0,meteohub,2013-06-30 08:37:00,
2013-06-30 04:42:00,76.5,73.9,29.73,SSE,149,0.0,5.0,92,0.00,,,0.00,0.0,meteohub,2013-06-30 08:42:00,
2013-06-30 04:47:00,76.3,73.8,29.73,SSE,153,1.0,4.0,92,0.00,,,0.00,0.0,meteohub,2013-06-30 08:47:00,
2013-06-30 04:52:00,76.3,73.8,29.73,South,183,0.0,4.0,92,0.00,,,0.00,0.0,meteohub,2013-06-30 08:52:00,
2013-06-30 04:57:00,76.3,73.8,29.73,SSE,160,0.0,4.0,92,0.00,,,0.00,0.0,meteohub,2013-06-30 08:57:00,
2013-06-30 05:02:00,76.3,73.8,29.73,SSE,165,0.0,6.0,92,0.00,,,0.00,0.0,meteohub,2013-06-30 09:02:00,
2013-06-30 05:07:00,76.1,73.6,29.73,SW,219,1.0,6.0,92,0.00,,,0.00,0.0,meteohub,2013-06-30 09:07:00,
2013-06-30 05:12:00,75.9,73.4,29.73,SSE,157,0.0,6.0,92,0.00,,,0.00,0.0,meteohub,2013-06-30 09:12:00,
2013-06-30 05:17:00,75.9,73.4,29.73,South,171,0.0,4.0,92,0.00,,,0.00,0.0,meteohub,2013-06-30 09:17:00,
2013-06-30 05:22:00,75.9,73.4,29.73,South,179,0.0,4.0,92,0.00,,,0.00,0.0,meteohub,2013-06-30 09:22:00,
2013-06-30 05:27:00,75.7,73.2,29.73,South,180,0.0,4.0,92,0.00,,,0.00,0.0,meteohub,2013-06-30 09:27:00,
2013-06-30 05:32:00,75.7,73.2,29.73,South,180,0.0,3.0,92,0.00,,,0.00,0.0,meteohub,2013-06-30 09:32:00,
2013-06-30 05:37:00,75.7,73.6,29.73,SSE,157,0.0,1.0,93,0.00,,,0.00,0.0,meteohub,2013-06-30 09:37:00,
2013-06-30 05:42:00,75.6,73.4,29.73,SSE,158,0.0,4.0,93,0.00,,,0.00,0.0,meteohub,2013-06-30 09:42:00,
2013-06-30 05:47:00,75.6,73.4,29.73,SW,219,0.0,9.0,93,0.00,,,0.00,0.0,meteohub,2013-06-30 09:47:00,
2013-06-30 05:52:00,75.6,73.4,29.73,South,179,0.0,9.0,93,0.00,,,0.00,0.0,meteohub,2013-06-30 09:52:00,
2013-06-30 05:57:00,75.6,73.4,29.74,SSE,157,0.0,9.0,93,0.00,,,0.00,0.0,meteohub,2013-06-30 09:57:00,
2013-06-30 06:02:00,75.4,73.2,29.74,WSW,244,0.0,4.0,93,0.00,,,0.00,0.0,meteohub,2013-06-30 10:02:00,
2013-06-30 06:07:00,75.4,73.2,29.74,SW,226,0.0,4.0,93,0.00,,,0.00,0.0,meteohub,2013-06-30 10:07:00,
2013-06-30 06:12:00,75.4,73.2,29.74,SSE,155,0.0,4.0,93,0.00,,,0.00,0.0,meteohub,2013-06-30 10:12:00,
2013-06-30 06:17:00,75.4,73.2,29.75,SSE,155,0.0,3.0,93,0.00,,,0.00,0.0,meteohub,2013-06-30 10:17:00,
2013-06-30 06:22:00,75.4,73.2,29.75,South,169,0.0,3.0,93,0.00,,,0.00,0.0,meteohub,2013-06-30 10:22:00,
2013-06-30 06:27:00,75.4,73.2,29.75,SSE,166,0.0,3.0,93,0.00,,,0.00,0.0,meteohub,2013-06-30 10:27:00,
2013-06-30 06:32:00,75.4,73.2,29.75,SSE,165,0.0,3.0,93,0.00,,,0.00,5.0,meteohub,2013-06-30 10:32:00,
2013-06-30 06:37:00,75.4,73.2,29.75,SE,132,0.0,3.0,93,0.00,,,0.00,11.0,meteohub,2013-06-30 10:37:00,
2013-06-30 06:42:00,75.4,73.2,29.76,SSE,161,0.0,4.0,93,0.00,,,0.00,14.0,meteohub,2013-06-30 10:42:00,
2013-06-30 06:47:00,75.4,73.2,29.76,SSW,194,1.0,4.0,93,0.00,,,0.00,19.0,meteohub,2013-06-30 10:47:00,
2013-06-30 06:52:00,75.4,73.2,29.76,SE,145,0.0,5.0,93,0.00,,,0.00,25.0,meteohub,2013-06-30 10:52:00,
2013-06-30 06:57:00,75.4,73.2,29.76,SSE,164,0.0,5.0,93,0.00,,,0.00,33.0,meteohub,2013-06-30 10:57:00,
2013-06-30 07:02:00,75.6,73.4,29.76,SW,225,0.0,5.0,93,0.00,,,0.00,51.0,meteohub,2013-06-30 11:02:00,
2013-06-30 07:07:00,75.6,73.4,29.76,South,175,0.0,3.0,93,0.00,,,0.00,53.0,meteohub,2013-06-30 11:07:00,
2013-06-30 07:12:00,75.7,73.6,29.76,South,187,0.0,7.0,93,0.00,,,0.00,83.0,meteohub,2013-06-30 11:12:00,
2013-06-30 07:17:00,76.1,73.9,29.76,South,186,0.0,7.0,93,0.00,,,0.00,60.0,meteohub,2013-06-30 11:17:00,
2013-06-30 07:22:00,76.3,74.1,29.77,SSW,204,0.0,3.0,93,0.00,,,0.00,93.0,meteohub,2013-06-30 11:22:00,
2013-06-30 07:27:00,76.5,73.9,29.77,SSW,192,0.0,4.0,92,0.00,,,0.00,123.0,meteohub,2013-06-30 11:27:00,
2013-06-30 07:32:00,76.8,74.3,29.77,SSE,148,0.0,4.0,92,0.00,,,0.00,135.0,meteohub,2013-06-30 11:32:00,
2013-06-30 07:37:00,77.4,74.5,29.77,SSE,158,4.0,9.0,91,0.00,,,0.00,149.0,meteohub,2013-06-30 11:37:00,
2013-06-30 07:42:00,77.5,74.7,29.77,SSW,198,0.0,9.0,91,0.00,,,0.00,167.0,meteohub,2013-06-30 11:42:00,
2013-06-30 07:47:00,77.9,74.7,29.77,SE,138,0.0,4.0,90,0.00,,,0.00,183.0,meteohub,2013-06-30 11:47:00,
2013-06-30 07:52:00,78.3,75.0,29.77,South,180,0.0,4.0,90,0.00,,,0.00,195.0,meteohub,2013-06-30 11:52:00,
2013-06-30 07:57:00,78.6,75.0,29.77,SSE,150,1.0,5.0,89,0.00,,,0.00,220.0,meteohub,2013-06-30 11:57:00,
2013-06-30 08:02:00,78.8,75.2,29.77,SE,134,0.0,5.0,89,0.00,,,0.00,236.0,meteohub,2013-06-30 12:02:00,
2013-06-30 08:07:00,79.2,75.4,29.77,SW,230,1.0,5.0,88,0.00,,,0.00,251.0,meteohub,2013-06-30 12:07:00,
2013-06-30 08:12:00,79.3,75.6,29.77,SSW,204,1.0,5.0,88,0.00,,,0.00,265.0,meteohub,2013-06-30 12:12:00,
2013-06-30 08:17:00,79.9,75.9,29.78,South,175,1.0,5.0,88,0.00,,,0.00,288.0,meteohub,2013-06-30 12:17:00,
2013-06-30 08:22:00,80.1,75.9,29.78,SSE,153,0.0,7.0,87,0.00,,,0.00,299.0,meteohub,2013-06-30 12:22:00,
2013-06-30 08:27:00,80.2,76.1,29.77,WNW,283,0.0,7.0,87,0.00,,,0.00,318.0,meteohub,2013-06-30 12:27:00,
2013-06-30 08:32:00,81.0,76.5,29.77,SSW,192,1.0,7.0,86,0.00,,,0.00,338.0,meteohub,2013-06-30 12:32:00,
2013-06-30 08:37:00,81.1,76.5,29.77,SW,228,1.0,5.0,86,0.00,,,0.00,371.0,meteohub,2013-06-30 12:37:00,
2013-06-30 08:42:00,81.1,76.3,29.77,WSW,245,2.0,5.0,85,0.00,,,0.00,383.0,meteohub,2013-06-30 12:42:00,
2013-06-30 08:47:00,81.3,76.5,29.77,SSE,153,0.0,4.0,85,0.00,,,0.00,192.0,meteohub,2013-06-30 12:47:00,
2013-06-30 08:52:00,81.3,76.5,29.77,SSW,209,0.0,5.0,85,0.00,,,0.00,457.0,meteohub,2013-06-30 12:52:00,
2013-06-30 08:57:00,81.3,76.5,29.77,SSW,202,0.0,6.0,85,0.00,,,0.00,480.0,meteohub,2013-06-30 12:57:00,
2013-06-30 09:02:00,81.9,76.5,29.77,West,273,1.0,6.0,84,0.00,,,0.00,316.0,meteohub,2013-06-30 13:02:00,
2013-06-30 09:07:00,82.0,76.3,29.77,SSW,195,0.0,6.0,83,0.00,,,0.00,476.0,meteohub,2013-06-30 13:07:00,
2013-06-30 09:12:00,82.2,76.5,29.77,NNE,26,1.0,8.0,83,0.00,,,0.00,439.0,meteohub,2013-06-30 13:12:00,
2013-06-30 09:17:00,82.4,75.9,29.77,SW,217,2.0,8.0,81,0.00,,,0.00,561.0,meteohub,2013-06-30 13:17:00,
2013-06-30 09:22:00,82.6,76.1,29.77,East,94,1.0,8.0,81,0.00,,,0.00,543.0,meteohub,2013-06-30 13:22:00,
2013-06-30 09:27:00,82.8,76.3,29.78,South,188,1.0,5.0,81,0.00,,,0.00,248.0,meteohub,2013-06-30 13:27:00,
2013-06-30 09:32:00,82.4,76.3,29.77,NNW,333,2.0,8.0,82,0.00,,,0.00,316.0,meteohub,2013-06-30 13:32:00,
2013-06-30 09:37:00,82.8,76.6,29.78,WNW,288,0.0,8.0,82,0.00,,,0.00,605.0,meteohub,2013-06-30 13:37:00,
2013-06-30 09:42:00,82.8,76.6,29.77,WSW,241,0.0,8.0,82,0.00,,,0.00,582.0,meteohub,2013-06-30 13:42:00,
2013-06-30 09:47:00,82.9,75.7,29.77,WSW,258,2.0,8.0,79,0.00,,,0.00,504.0,meteohub,2013-06-30 13:47:00,
2013-06-30 09:52:00,83.5,76.3,29.77,NNW,331,0.0,8.0,79,0.00,,,0.00,671.0,meteohub,2013-06-30 13:52:00,
2013-06-30 09:57:00,83.8,76.3,29.77,SE,145,0.0,8.0,78,0.00,,,0.00,647.0,meteohub,2013-06-30 13:57:00,
2013-06-30 10:02:00,84.0,76.1,29.77,SSE,159,0.0,6.0,77,0.00,,,0.00,638.0,meteohub,2013-06-30 14:02:00,
2013-06-30 10:07:00,84.4,76.8,29.77,WSW,246,0.0,6.0,78,0.00,,,0.00,656.0,meteohub,2013-06-30 14:07:00,
2013-06-30 10:12:00,84.4,76.5,29.77,WNW,295,1.0,8.0,77,0.00,,,0.00,698.0,meteohub,2013-06-30 14:12:00,
2013-06-30 10:17:00,84.6,75.7,29.77,South,191,0.0,8.0,75,0.00,,,0.00,874.0,meteohub,2013-06-30 14:17:00,
2013-06-30 10:22:00,84.7,75.9,29.77,SW,217,0.0,8.0,75,0.00,,,0.00,874.0,meteohub,2013-06-30 14:22:00,
2013-06-30 10:27:00,84.2,75.0,29.77,SSE,153,0.0,7.0,74,0.00,,,0.00,225.0,meteohub,2013-06-30 14:27:00,
2013-06-30 10:32:00,83.8,75.0,29.77,South,176,1.0,7.0,75,0.00,,,0.00,362.0,meteohub,2013-06-30 14:32:00,
2013-06-30 10:37:00,84.2,75.7,29.77,East,94,1.0,7.0,76,0.00,,,0.00,754.0,meteohub,2013-06-30 14:37:00,
2013-06-30 10:42:00,84.9,76.1,29.77,South,179,3.0,8.0,75,0.00,,,0.00,759.0,meteohub,2013-06-30 14:42:00,
2013-06-30 10:47:00,85.5,75.7,29.76,SSE,156,1.0,8.0,73,0.00,,,0.00,814.0,meteohub,2013-06-30 14:47:00,
2013-06-30 10:52:00,85.6,75.9,29.76,SW,227,0.0,8.0,73,0.00,,,0.00,816.0,meteohub,2013-06-30 14:52:00,
2013-06-30 10:57:00,85.8,76.6,29.77,SSE,168,0.0,5.0,74,0.00,,,0.00,847.0,meteohub,2013-06-30 14:57:00,
2013-06-30 11:02:00,85.8,76.1,29.77,WNW,288,0.0,3.0,73,0.00,,,0.00,213.0,meteohub,2013-06-30 15:02:00,
2013-06-30 11:07:00,86.2,77.4,29.77,SSE,150,0.0,3.0,75,0.00,,,0.00,315.0,meteohub,2013-06-30 15:07:00,
2013-06-30 11:12:00,86.4,76.6,29.77,South,191,4.0,4.0,73,0.00,,,0.00,1020.0,meteohub,2013-06-30 15:12:00,
2013-06-30 11:17:00,86.7,76.6,29.77,SSW,201,1.0,5.0,72,0.00,,,0.00,991.0,meteohub,2013-06-30 15:17:00,
2013-06-30 11:22:00,86.9,76.3,29.77,SSW,200,0.0,5.0,71,0.00,,,0.00,1007.0,meteohub,2013-06-30 15:22:00,
2013-06-30 11:27:00,86.7,75.7,29.77,SSW,193,4.0,5.0,70,0.00,,,0.00,281.0,meteohub,2013-06-30 15:27:00,
2013-06-30 11:32:00,86.5,76.8,29.77,NW,315,4.0,6.0,73,0.00,,,0.00,294.0,meteohub,2013-06-30 15:32:00,
2013-06-30 11:37:00,87.1,77.0,29.77,SSW,200,1.0,9.0,72,0.00,,,0.00,1071.0,meteohub,2013-06-30 15:37:00,
2013-06-30 11:42:00,87.6,77.0,29.77,SSE,152,0.0,9.0,71,0.00,,,0.00,308.0,meteohub,2013-06-30 15:42:00,
2013-06-30 11:47:00,87.3,76.6,29.77,East,91,0.0,7.0,71,0.00,,,0.00,301.0,meteohub,2013-06-30 15:47:00,
2013-06-30 11:52:00,87.3,77.5,29.77,SW,234,2.0,5.0,73,0.00,,,0.00,1028.0,meteohub,2013-06-30 15:52:00,
2013-06-30 11:57:00,87.4,76.8,29.77,SSE,157,1.0,7.0,71,0.00,,,0.00,1030.0,meteohub,2013-06-30 15:57:00,
2013-06-30 12:02:00,88.0,77.0,29.76,West,263,0.0,7.0,70,0.00,,,0.00,972.0,meteohub,2013-06-30 16:02:00,
2013-06-30 12:07:00,88.3,76.8,29.76,West,269,0.0,7.0,69,0.00,,,0.00,997.0,meteohub,2013-06-30 16:07:00,
2013-06-30 12:12:00,88.5,76.6,29.76,WSW,242,1.0,6.0,68,0.00,,,0.00,311.0,meteohub,2013-06-30 16:12:00,
2013-06-30 12:17:00,88.2,76.3,29.76,SSE,160,0.0,6.0,68,0.00,,,0.00,338.0,meteohub,2013-06-30 16:17:00,
2013-06-30 12:22:00,87.6,75.7,29.76,SE,134,0.0,6.0,68,0.00,,,0.00,262.0,meteohub,2013-06-30 16:22:00,
2013-06-30 12:27:00,87.1,76.1,29.76,SSE,149,1.0,7.0,70,0.00,,,0.00,151.0,meteohub,2013-06-30 16:27:00,
2013-06-30 12:32:00,86.7,75.7,29.76,SSE,149,0.0,7.0,70,0.00,,,0.00,118.0,meteohub,2013-06-30 16:32:00,
2013-06-30 12:37:00,86.4,76.3,29.76,South,190,0.0,4.0,72,0.00,,,0.00,165.0,meteohub,2013-06-30 16:37:00,
2013-06-30 12:42:00,86.5,75.9,29.76,SSE,157,0.0,3.0,71,0.00,,,0.00,301.0,meteohub,2013-06-30 16:42:00,
2013-06-30 12:47:00,87.1,76.5,29.76,SSE,156,1.0,5.0,71,0.00,,,0.00,1106.0,meteohub,2013-06-30 16:47:00,
2013-06-30 12:52:00,88.3,75.9,29.75,WSW,244,0.0,5.0,67,0.00,,,0.00,1222.0,meteohub,2013-06-30 16:52:00,
2013-06-30 12:57:00,89.4,77.5,29.76,SSE,155,0.0,4.0,68,0.00,,,0.00,452.0,meteohub,2013-06-30 16:57:00,
2013-06-30 13:02:00,88.9,78.3,29.76,SE,146,3.0,4.0,71,0.00,,,0.00,220.0,meteohub,2013-06-30 17:02:00,
2013-06-30 13:07:00,87.3,78.4,29.75,SE,128,1.0,7.0,75,0.00,,,0.00,367.0,meteohub,2013-06-30 17:07:00,
2013-06-30 13:12:00,86.5,78.1,29.75,SE,126,0.0,7.0,76,0.00,,,0.00,1155.0,meteohub,2013-06-30 17:12:00,
2013-06-30 13:17:00,86.7,77.9,29.75,NE,51,0.0,7.0,75,0.00,,,0.00,1178.0,meteohub,2013-06-30 17:17:00,
2013-06-30 13:22:00,86.7,77.0,29.75,SSE,157,2.0,7.0,73,0.00,,,0.00,1178.0,meteohub,2013-06-30 17:22:00,
2013-06-30 13:27:00,87.1,78.3,29.75,SSE,165,2.0,5.0,75,0.00,,,0.00,1183.0,meteohub,2013-06-30 17:27:00,
2013-06-30 13:32:00,87.4,78.6,29.75,South,170,0.0,5.0,75,0.00,,,0.00,1232.0,meteohub,2013-06-30 17:32:00,
2013-06-30 13:37:00,87.6,78.3,29.75,SE,138,1.0,5.0,74,0.00,,,0.00,267.0,meteohub,2013-06-30 17:37:00,
2013-06-30 13:42:00,87.4,78.1,29.74,ESE,113,2.0,8.0,74,0.00,,,0.00,288.0,meteohub,2013-06-30 17:42:00,
2013-06-30 13:47:00,86.2,77.4,29.74,SE,134,4.0,9.0,75,0.00,,,0.00,65.0,meteohub,2013-06-30 17:47:00,
2013-06-30 13:52:00,84.9,76.8,29.74,WSW,247,0.0,9.0,77,0.00,,,0.00,33.0,meteohub,2013-06-30 17:52:00,
2013-06-30 13:57:00,83.1,75.9,29.74,South,183,0.0,9.0,79,0.02,,,0.00,39.0,meteohub,2013-06-30 17:57:00,
2013-06-30 14:02:00,81.1,75.2,29.75,South,183,0.0,9.0,82,0.04,,,0.04,46.0,meteohub,2013-06-30 18:02:00,
2013-06-30 14:07:00,79.9,75.0,29.75,South,184,0.0,7.0,85,0.05,,,0.05,32.0,meteohub,2013-06-30 18:07:00,
2013-06-30 14:12:00,79.0,75.2,29.75,South,184,0.0,5.0,88,0.05,,,0.05,42.0,meteohub,2013-06-30 18:12:00,
2013-06-30 14:17:00,78.6,75.4,29.76,SSE,157,3.0,3.0,90,0.05,,,0.05,28.0,meteohub,2013-06-30 18:17:00,
2013-06-30 14:22:00,78.6,75.7,29.76,SSE,154,0.0,5.0,91,0.05,,,0.05,47.0,meteohub,2013-06-30 18:22:00,
2013-06-30 14:27:00,78.3,75.0,29.76,ESE,107,2.0,5.0,90,0.05,,,0.05,47.0,meteohub,2013-06-30 18:27:00,
2013-06-30 14:32:00,76.8,73.6,29.76,SE,132,3.0,10.0,90,0.05,,,0.05,65.0,meteohub,2013-06-30 18:32:00,
2013-06-30 14:37:00,76.3,73.4,29.76,SE,128,0.0,11.0,91,0.05,,,0.05,77.0,meteohub,2013-06-30 18:37:00,
2013-06-30 14:42:00,75.7,73.2,29.76,ESE,106,2.0,11.0,92,0.05,,,0.05,91.0,meteohub,2013-06-30 18:42:00,
2013-06-30 14:47:00,75.6,73.0,29.76,SSE,150,0.0,6.0,92,0.05,,,0.05,105.0,meteohub,2013-06-30 18:47:00,
2013-06-30 14:52:00,75.6,73.0,29.76,ESE,108,1.0,4.0,92,0.05,,,0.05,109.0,meteohub,2013-06-30 18:52:00,
2013-06-30 14:57:00,75.4,72.9,29.76,East,101,0.0,4.0,92,0.03,,,0.05,120.0,meteohub,2013-06-30 18:57:00,
2013-06-30 15:02:00,75.4,72.9,29.75,ESE,113,0.0,4.0,92,0.00,,,0.05,137.0,meteohub,2013-06-30 19:02:00,
2013-06-30 15:07:00,75.4,72.5,29.75,SE,136,2.0,5.0,91,0.00,,,0.05,132.0,meteohub,2013-06-30 19:07:00,
2013-06-30 15:12:00,75.4,72.3,29.75,SE,125,0.0,8.0,90,0.00,,,0.05,139.0,meteohub,2013-06-30 19:12:00,
2013-06-30 15:17:00,75.4,72.3,29.76,ESE,117,1.0,8.0,90,0.00,,,0.05,148.0,meteohub,2013-06-30 19:17:00,
2013-06-30 15:22:00,75.4,72.3,29.76,ENE,74,1.0,8.0,90,0.00,,,0.05,160.0,meteohub,2013-06-30 19:22:00,
2013-06-30 15:27:00,75.6,72.5,29.77,East,88,0.0,4.0,90,0.00,,,0.05,171.0,meteohub,2013-06-30 19:27:00,
2013-06-30 15:32:00,75.7,72.9,29.77,ESE,109,2.0,5.0,91,0.00,,,0.05,183.0,meteohub,2013-06-30 19:32:00,
2013-06-30 15:37:00,75.9,73.4,29.76,SE,126,0.0,5.0,92,0.00,,,0.05,186.0,meteohub,2013-06-30 19:37:00,
2013-06-30 15:42:00,76.3,73.4,29.76,SE,144,3.0,5.0,91,0.00,,,0.05,171.0,meteohub,2013-06-30 19:42:00,
2013-06-30 15:47:00,76.6,73.8,29.76,East,99,1.0,5.0,91,0.00,,,0.05,146.0,meteohub,2013-06-30 19:47:00,
2013-06-30 15:52:00,77.0,74.1,29.77,SSE,154,0.0,5.0,91,0.00,,,0.05,132.0,meteohub,2013-06-30 19:52:00,
2013-06-30 15:57:00,77.4,74.5,29.77,SSE,154,0.0,4.0,91,0.00,,,0.05,123.0,meteohub,2013-06-30 19:57:00,
2013-06-30 15:59:00,77.4,74.1,29.76,SE,144,0.0,4.0,90,0.00,,,0.05,120.0,meteohub,2013-06-30 19:59:00,
2013-06-30 16:04:00,77.5,74.3,29.77,SSE,161,6.0,6.0,90,0.00,,,0.05,118.0,meteohub,2013-06-30 20:04:00,
2013-06-30 16:09:00,77.7,74.5,29.77,South,176,0.0,8.0,90,0.00,,,0.05,132.0,meteohub,2013-06-30 20:09:00,
2013-06-30 16:14:00,77.9,74.7,29.76,ESE,123,0.0,10.0,90,0.00,,,0.05,137.0,meteohub,2013-06-30 20:14:00,
2013-06-30 16:19:00,78.1,74.8,29.76,SSW,194,2.0,10.0,90,0.00,,,0.05,135.0,meteohub,2013-06-30 20:19:00,
2013-06-30 16:24:00,78.1,74.5,29.76,SSE,153,0.0,8.0,89,0.00,,,0.05,132.0,meteohub,2013-06-30 20:24:00,
2013-06-30 16:29:00,78.3,75.0,29.76,SSE,150,1.0,6.0,90,0.00,,,0.05,134.0,meteohub,2013-06-30 20:29:00,
2013-06-30 16:34:00,78.3,74.7,29.75,SSE,149,0.0,5.0,89,0.00,,,0.05,146.0,meteohub,2013-06-30 20:34:00,
2013-06-30 16:39:00,78.3,74.7,29.75,South,173,4.0,7.0,89,0.00,,,0.05,165.0,meteohub,2013-06-30 20:39:00,
2013-06-30 16:44:00,78.3,74.5,29.75,SE,142,1.0,10.0,88,0.00,,,0.05,181.0,meteohub,2013-06-30 20:44:00,
2013-06-30 16:49:00,78.3,74.5,29.75,SSE,157,4.0,10.0,88,0.00,,,0.05,192.0,meteohub,2013-06-30 20:49:00,
2013-06-30 16:54:00,78.3,74.5,29.75,SE,146,2.0,10.0,88,0.00,,,0.05,207.0,meteohub,2013-06-30 20:54:00,
2013-06-30 16:59:00,78.3,73.8,29.76,SE,141,2.0,8.0,86,0.00,,,0.05,253.0,meteohub,2013-06-30 20:59:00,
2013-06-30 17:04:00,78.4,73.9,29.75,SSE,152,5.0,9.0,86,0.00,,,0.05,253.0,meteohub,2013-06-30 21:04:00,
2013-06-30 17:09:00,78.6,74.1,29.75,SSE,153,8.0,11.0,86,0.00,,,0.05,241.0,meteohub,2013-06-30 21:09:00,
2013-06-30 17:14:00,78.6,73.4,29.75,South,169,0.0,11.0,84,0.00,,,0.05,229.0,meteohub,2013-06-30 21:14:00,
2013-06-30 17:19:00,78.6,73.0,29.75,South,188,3.0,12.0,83,0.00,,,0.05,213.0,meteohub,2013-06-30 21:19:00,
2013-06-30 17:24:00,78.6,72.7,29.75,South,183,1.0,12.0,82,0.00,,,0.05,197.0,meteohub,2013-06-30 21:24:00,
2013-06-30 17:29:00,78.6,73.0,29.74,South,173,1.0,8.0,83,0.00,,,0.05,181.0,meteohub,2013-06-30 21:29:00,
2013-06-30 17:34:00,78.6,73.0,29.74,SSW,203,0.0,8.0,83,0.00,,,0.05,171.0,meteohub,2013-06-30 21:34:00,
2013-06-30 17:39:00,78.6,73.4,29.74,SW,214,3.0,8.0,84,0.00,,,0.05,163.0,meteohub,2013-06-30 21:39:00,
2013-06-30 17:44:00,78.6,73.4,29.74,South,173,2.0,6.0,84,0.00,,,0.05,160.0,meteohub,2013-06-30 21:44:00,
2013-06-30 17:49:00,78.6,73.8,29.75,SSE,147,4.0,7.0,85,0.00,,,0.05,156.0,meteohub,2013-06-30 21:49:00,
2013-06-30 17:54:00,78.6,73.8,29.75,SSE,168,1.0,7.0,85,0.00,,,0.05,151.0,meteohub,2013-06-30 21:54:00,
2013-06-30 17:59:00,78.6,73.4,29.75,SW,222,4.0,7.0,84,0.00,,,0.05,149.0,meteohub,2013-06-30 21:59:00,
2013-06-30 18:04:00,78.6,73.4,29.75,SSW,194,5.0,6.0,84,0.00,,,0.05,155.0,meteohub,2013-06-30 22:04:00,
2013-06-30 18:09:00,78.8,73.9,29.75,South,190,1.0,6.0,85,0.00,,,0.05,158.0,meteohub,2013-06-30 22:09:00,
2013-06-30 18:14:00,79.0,73.8,29.75,SW,218,1.0,6.0,84,0.00,,,0.05,158.0,meteohub,2013-06-30 22:14:00,
2013-06-30 18:19:00,79.0,74.1,29.75,SSW,205,1.0,8.0,85,0.00,,,0.05,156.0,meteohub,2013-06-30 22:19:00,
2013-06-30 18:24:00,79.0,74.1,29.75,SE,146,1.0,8.0,85,0.00,,,0.05,151.0,meteohub,2013-06-30 22:24:00,
2013-06-30 18:29:00,79.0,74.1,29.76,SSW,193,3.0,8.0,85,0.00,,,0.05,149.0,meteohub,2013-06-30 22:29:00,
2013-06-30 18:34:00,79.0,74.1,29.76,South,171,0.0,5.0,85,0.00,,,0.05,144.0,meteohub,2013-06-30 22:34:00,
2013-06-30 18:39:00,79.2,74.7,29.76,SSE,155,1.0,5.0,86,0.00,,,0.05,141.0,meteohub,2013-06-30 22:39:00,
2013-06-30 18:44:00,79.2,74.7,29.76,SSW,195,0.0,7.0,86,0.00,,,0.05,134.0,meteohub,2013-06-30 22:44:00,
2013-06-30 18:49:00,79.2,74.7,29.76,South,178,0.0,7.0,86,0.00,,,0.05,123.0,meteohub,2013-06-30 22:49:00,
2013-06-30 18:54:00,79.2,74.7,29.76,SSE,168,1.0,7.0,86,0.00,,,0.05,116.0,meteohub,2013-06-30 22:54:00,
2013-06-30 18:59:00,79.2,74.7,29.77,SSE,153,0.0,7.0,86,0.00,,,0.05,111.0,meteohub,2013-06-30 22:59:00,
2013-06-30 19:04:00,79.2,74.7,29.77,SSE,155,1.0,7.0,86,0.00,,,0.05,105.0,meteohub,2013-06-30 23:04:00,
2013-06-30 19:09:00,79.2,74.7,29.77,SSE,156,0.0,7.0,86,0.00,,,0.05,100.0,meteohub,2013-06-30 23:09:00,
2013-06-30 19:14:00,79.3,75.2,29.77,SSE,149,4.0,7.0,87,0.00,,,0.05,91.0,meteohub,2013-06-30 23:14:00,
2013-06-30 19:19:00,79.2,74.7,29.78,SSE,153,2.0,4.0,86,0.00,,,0.05,84.0,meteohub,2013-06-30 23:19:00,
2013-06-30 19:24:00,79.2,74.7,29.78,ESE,122,0.0,5.0,86,0.00,,,0.05,77.0,meteohub,2013-06-30 23:24:00,
2013-06-30 19:29:00,79.2,75.0,29.78,ESE,117,2.0,7.0,87,0.00,,,0.05,69.0,meteohub,2013-06-30 23:29:00,
2013-06-30 19:34:00,79.0,74.5,29.77,SE,132,0.0,7.0,86,0.00,,,0.05,60.0,meteohub,2013-06-30 23:34:00,
2013-06-30 19:39:00,78.6,74.1,29.78,SSE,153,0.0,10.0,86,0.00,,,0.05,49.0,meteohub,2013-06-30 23:39:00,
2013-06-30 19:44:00,78.6,74.5,29.77,SE,146,1.0,10.0,87,0.00,,,0.05,42.0,meteohub,2013-06-30 23:44:00,
2013-06-30 19:49:00,78.4,73.9,29.77,SSW,207,1.0,10.0,86,0.00,,,0.05,37.0,meteohub,2013-06-30 23:49:00,
2013-06-30 19:54:00,78.3,74.1,29.77,ESE,115,0.0,7.0,87,0.00,,,0.05,32.0,meteohub,2013-06-30 23:54:00,
2013-06-30 19:59:00,78.3,74.1,29.77,ESE,106,1.0,7.0,87,0.00,,,0.05,28.0,meteohub,2013-06-30 23:59:00,
2013-06-30 20:04:00,78.1,73.9,29.78,South,169,1.0,8.0,87,0.00,,,0.05,23.0,meteohub,2013-07-01 00:04:00,
2013-06-30 20:09:00,78.1,73.9,29.78,NE,47,1.0,8.0,87,0.00,,,0.05,19.0,meteohub,2013-07-01 00:09:00,
2013-06-30 20:14:00,77.9,73.8,29.78,South,178,4.0,8.0,87,0.00,,,0.05,16.0,meteohub,2013-07-01 00:14:00,
2013-06-30 20:19:00,77.9,74.1,29.78,SSE,147,1.0,8.0,88,0.00,,,0.05,9.0,meteohub,2013-07-01 00:19:00,
2013-06-30 20:24:00,77.9,74.1,29.79,SSE,157,1.0,6.0,88,0.00,,,0.05,5.0,meteohub,2013-07-01 00:24:00,
2013-06-30 20:29:00,77.9,74.5,29.79,SSE,153,0.0,6.0,89,0.00,,,0.05,0.0,meteohub,2013-07-01 00:29:00,
2013-06-30 20:35:00,78.1,74.5,29.79,SE,130,3.0,6.0,89,0.00,,,0.05,0.0,meteohub,2013-07-01 00:35:00,
2013-06-30 20:40:00,77.9,74.5,29.79,SE,134,7.0,7.0,89,0.00,,,0.05,0.0,meteohub,2013-07-01 00:40:00,
2013-06-30 20:45:00,77.9,74.5,29.79,SW,230,5.0,13.0,89,0.00,,,0.05,0.0,meteohub,2013-07-01 00:45:00,
2013-06-30 20:50:00,77.9,74.5,29.79,SSE,155,1.0,13.0,89,0.00,,,0.05,0.0,meteohub,2013-07-01 00:50:00,
2013-06-30 20:55:00,77.9,74.5,29.79,SE,138,0.0,13.0,89,0.00,,,0.05,0.0,meteohub,2013-07-01 00:55:00,
2013-06-30 21:00:00,77.9,74.7,29.79,SE,146,0.0,10.0,90,0.00,,,0.05,0.0,meteohub,2013-07-01 01:00:00,
2013-06-30 21:05:00,77.9,74.5,29.79,SSE,161,1.0,10.0,89,0.00,,,0.05,0.0,meteohub,2013-07-01 01:05:00,
2013-06-30 21:10:00,77.9,74.5,29.78,SE,134,3.0,9.0,89,0.00,,,0.05,0.0,meteohub,2013-07-01 01:10:00,
2013-06-30 21:15:00,77.7,74.3,29.79,ESE,121,0.0,7.0,89,0.00,,,0.05,0.0,meteohub,2013-07-01 01:15:00,
2013-06-30 21:20:00,77.9,74.5,29.78,ESE,109,2.0,7.0,89,0.00,,,0.05,0.0,meteohub,2013-07-01 01:20:00,
2013-06-30 21:25:00,77.9,74.7,29.78,SSW,206,2.0,8.0,90,0.00,,,0.05,0.0,meteohub,2013-07-01 01:25:00,
2013-06-30 21:30:00,77.7,74.5,29.78,SSE,160,1.0,8.0,90,0.00,,,0.05,0.0,meteohub,2013-07-01 01:30:00,
2013-06-30 21:35:00,77.7,74.5,29.78,ESE,121,1.0,6.0,90,0.00,,,0.05,0.0,meteohub,2013-07-01 01:35:00,
2013-06-30 21:40:00,77.5,74.3,29.78,SSE,157,1.0,6.0,90,0.00,,,0.05,0.0,meteohub,2013-07-01 01:40:00,
2013-06-30 21:45:00,77.5,74.3,29.78,SE,128,0.0,6.0,90,0.00,,,0.05,0.0,meteohub,2013-07-01 01:45:00,
2013-06-30 21:50:00,77.5,74.3,29.79,SSW,198,4.0,5.0,90,0.00,,,0.05,0.0,meteohub,2013-07-01 01:50:00,
2013-06-30 21:55:00,77.5,74.7,29.79,East,99,2.0,5.0,91,0.00,,,0.05,0.0,meteohub,2013-07-01 01:55:00,
2013-06-30 22:00:00,77.4,74.5,29.79,SSE,159,0.0,6.0,91,0.00,,,0.05,0.0,meteohub,2013-07-01 02:00:00,
2013-06-30 22:05:00,77.4,74.5,29.79,SSE,163,4.0,6.0,91,0.00,,,0.05,0.0,meteohub,2013-07-01 02:05:00,
2013-06-30 22:10:00,77.5,74.7,29.80,SE,125,0.0,7.0,91,0.00,,,0.05,0.0,meteohub,2013-07-01 02:10:00,
2013-06-30 22:15:00,77.5,74.7,29.80,ESE,109,4.0,8.0,91,0.00,,,0.05,0.0,meteohub,2013-07-01 02:15:00,
2013-06-30 22:20:00,77.5,74.7,29.80,SSE,157,0.0,8.0,91,0.00,,,0.05,0.0,meteohub,2013-07-01 02:20:00,
2013-06-30 22:25:00,77.5,74.7,29.80,SSE,155,1.0,13.0,91,0.00,,,0.05,0.0,meteohub,2013-07-01 02:25:00,
2013-06-30 22:30:00,77.7,74.8,29.80,SW,220,2.0,13.0,91,0.00,,,0.05,0.0,meteohub,2013-07-01 02:30:00,
2013-06-30 22:35:00,77.7,74.8,29.81,SSE,157,2.0,13.0,91,0.00,,,0.05,0.0,meteohub,2013-07-01 02:35:00,
2013-06-30 22:40:00,77.7,74.8,29.81,SSE,157,2.0,8.0,91,0.00,,,0.05,0.0,meteohub,2013-07-01 02:40:00,
2013-06-30 22:45:00,77.7,74.5,29.81,South,174,1.0,8.0,90,0.00,,,0.05,0.0,meteohub,2013-07-01 02:45:00,
2013-06-30 22:50:00,77.7,74.5,29.81,SSE,151,0.0,10.0,90,0.00,,,0.05,0.0,meteohub,2013-07-01 02:50:00,
2013-06-30 22:55:00,77.7,74.5,29.81,South,175,2.0,10.0,90,0.00,,,0.05,0.0,meteohub,2013-07-01 02:55:00,
2013-06-30 23:00:00,77.7,74.5,29.81,ESE,106,0.0,10.0,90,0.00,,,0.05,0.0,meteohub,2013-07-01 03:00:00,
2013-06-30 23:05:00,77.7,74.8,29.81,SSE,147,1.0,9.0,91,0.00,,,0.05,0.0,meteohub,2013-07-01 03:05:00,
2013-06-30 23:10:00,77.5,74.7,29.80,SE,134,1.0,9.0,91,0.00,,,0.05,0.0,meteohub,2013-07-01 03:10:00,
2013-06-30 23:15:00,77.5,74.7,29.81,ESE,105,3.0,8.0,91,0.00,,,0.05,0.0,meteohub,2013-07-01 03:15:00,
2013-06-30 23:20:00,77.4,74.5,29.80,SW,236,4.0,8.0,91,0.00,,,0.05,0.0,meteohub,2013-07-01 03:20:00,
2013-06-30 23:25:00,77.4,74.5,29.81,SSW,194,3.0,6.0,91,0.00,,,0.05,0.0,meteohub,2013-07-01 03:25:00,
2013-06-30 23:30:00,77.4,74.5,29.81,SSE,164,1.0,8.0,91,0.00,,,0.05,0.0,meteohub,2013-07-01 03:30:00,
2013-06-30 23:35:00,77.4,74.5,29.81,ESE,114,0.0,8.0,91,0.00,,,0.05,0.0,meteohub,2013-07-01 03:35:00,
2013-06-30 23:40:00,77.2,74.3,29.81,ESE,122,1.0,8.0,91,0.00,,,0.05,0.0,meteohub,2013-07-01 03:40:00,
2013-06-30 23:45:00,77.2,74.3,29.81,SW,219,5.0,10.0,91,0.00,,,0.05,0.0,meteohub,2013-07-01 03:45:00,
2013-06-30 23:50:00,77.2,74.3,29.80,SE,126,2.0,10.0,91,0.00,,,0.05,0.0,meteohub,2013-07-01 03:50:00,
2013-06-30 23:55:00,77.2,74.3,29.80,East,90,0.0,9.0,91,0.00,,,0.05,0.0,meteohub,2013-07-01 03:55:00,